TimeCST,TemperatureF,Dew PointF,Humidity,Sea Level PressureIn,VisibilityMPH,Wind Direction,Wind SpeedMPH,Gust SpeedMPH,PrecipitationIn,Events,Conditions,WindDirDegrees,DateUTC
12:15 AM,33.8,32.0,93,29.60,5.0,South,3.5,-,N/A,,Clear,170,2013-12-03 06:15:00
12:35 AM,33.8,33.8,100,29.59,7.0,Calm,Calm,-,N/A,,Clear,0,2013-12-03 06:35:00
12:55 AM,33.8,33.8,100,29.59,5.0,Calm,Calm,-,N/A,,Clear,0,2013-12-03 06:55:00
1:15 AM,33.8,33.8,100,29.58,1.2,Calm,Calm,-,N/A,,Mostly Cloudy,0,2013-12-03 07:15:00
1:35 AM,33.8,33.8,100,29.57,0.2,South,3.5,-,N/A,Fog,Fog,180,2013-12-03 07:35:00
1:55 AM,32.0,32.0,100,29.57,0.2,Calm,Calm,-,N/A,Fog,Fog,0,2013-12-03 07:55:00
2:15 AM,32.0,32.0,100,29.56,0.2,Calm,Calm,-,N/A,Fog,Fog,0,2013-12-03 08:15:00
2:35 AM,32.0,32.0,100,29.55,0.2,Calm,Calm,-,N/A,Fog,Fog,0,2013-12-03 08:35:00
2:55 AM,32.0,32.0,100,29.55,0.2,Calm,Calm,-,N/A,Fog,Fog,0,2013-12-03 08:55:00
3:15 AM,32.0,32.0,100,29.55,0.2,Calm,Calm,-,N/A,Fog,Fog,0,2013-12-03 09:15:00
3:35 AM,32.0,32.0,100,29.55,0.2,Calm,Calm,-,N/A,Snow,Snow,0,2013-12-03 09:35:00
3:55 AM,32.0,32.0,100,29.56,0.2,Calm,Calm,-,N/A,Fog,Light Freezing Fog,0,2013-12-03 09:55:00
4:15 AM,32.0,32.0,100,29.56,0.2,Calm,Calm,-,N/A,Fog,Light Freezing Fog,0,2013-12-03 10:15:00
4:35 AM,32.0,32.0,100,29.55,0.2,Calm,Calm,-,N/A,Fog,Fog,0,2013-12-03 10:35:00
4:55 AM,32.0,32.0,100,29.55,0.2,Calm,Calm,-,N/A,Fog,Fog,0,2013-12-03 10:55:00
6:15 AM,32.0,32.0,100,29.55,0.2,Calm,Calm,-,N/A,Fog,Fog,0,2013-12-03 12:15:00
6:50 AM,33.8,33.8,100,29.55,0.2,Calm,Calm,-,N/A,Fog,Fog,0,2013-12-03 12:50:00
7:50 AM,33.8,33.8,100,29.56,0.2,Calm,Calm,-,N/A,Fog,Fog,0,2013-12-03 13:50:00
8:50 AM,39.2,39.2,100,29.55,0.2,SSE,5.8,-,N/A,Fog,Fog,150,2013-12-03 14:50:00
9:09 AM,41.0,41.0,100,29.55,2.0,SSE,5.8,-,N/A,,Mostly Cloudy,150,2013-12-03 15:09:00
9:35 AM,46.4,46.4,100,29.57,3.0,SSE,6.9,-,N/A,,Scattered Clouds,150,2013-12-03 15:35:00
9:50 AM,46.4,46.4,100,29.57,4.0,SSE,6.9,-,N/A,,Scattered Clouds,160,2013-12-03 15:50:00
10:50 AM,50.0,50.0,100,29.57,7.0,SSE,5.8,-,N/A,,Scattered Clouds,150,2013-12-03 16:50:00
11:50 AM,53.6,53.6,100,29.54,7.0,SE,17.3,-,N/A,,Scattered Clouds,140,2013-12-03 17:50:00
12:50 PM,60.8,50.0,68,29.50,10.0,SSE,11.5,18.4,N/A,,Scattered Clouds,150,2013-12-03 18:50:00
1:50 PM,64.4,46.4,52,29.48,10.0,SE,15.0,-,N/A,,Partly Cloudy,140,2013-12-03 19:50:00
2:50 PM,66.2,44.6,46,29.47,10.0,SSE,10.4,-,N/A,,Partly Cloudy,160,2013-12-03 20:50:00
3:50 PM,66.2,44.6,46,29.47,10.0,South,9.2,-,N/A,,Partly Cloudy,190,2013-12-03 21:50:00
4:50 PM,59.0,44.6,59,29.48,10.0,South,9.2,-,N/A,,Partly Cloudy,170,2013-12-03 22:50:00
5:50 PM,51.8,42.8,71,29.49,10.0,South,5.8,-,N/A,,Partly Cloudy,170,2013-12-03 23:50:00
6:50 PM,44.6,41.0,87,29.50,10.0,SE,9.2,-,N/A,,Partly Cloudy,130,2013-12-04 00:50:00
7:55 PM,42.8,41.0,93,29.50,10.0,SE,11.5,-,N/A,,Partly Cloudy,130,2013-12-04 01:55:00
8:15 PM,42.8,41.0,93,29.50,10.0,SE,5.8,-,N/A,,Clear,140,2013-12-04 02:15:00
8:35 PM,42.8,39.2,87,29.50,10.0,SE,8.1,-,N/A,,Clear,140,2013-12-04 02:35:00
8:50 PM,42.8,39.2,87,29.50,10.0,ESE,9.2,-,N/A,,Partly Cloudy,120,2013-12-04 02:50:00
8:55 PM,41.0,37.4,87,29.49,10.0,SE,6.9,-,N/A,,Clear,140,2013-12-04 02:55:00
9:15 PM,41.0,37.4,87,29.49,10.0,SSE,5.8,-,N/A,,Clear,160,2013-12-04 03:15:00
9:35 PM,41.0,37.4,87,29.50,10.0,SE,5.8,-,N/A,,Clear,140,2013-12-04 03:35:00
9:55 PM,41.0,39.2,93,29.50,10.0,SSE,6.9,-,N/A,,Clear,150,2013-12-04 03:55:00
10:15 PM,41.0,37.4,87,29.50,10.0,SSE,8.1,-,N/A,,Clear,150,2013-12-04 04:15:00
10:35 PM,39.2,37.4,93,29.50,10.0,SE,8.1,-,N/A,,Clear,140,2013-12-04 04:35:00
10:55 PM,41.0,41.0,100,29.49,10.0,SE,6.9,-,N/A,,Clear,130,2013-12-04 04:55:00
11:15 PM,42.8,41.0,93,29.49,10.0,SE,9.2,-,N/A,,Clear,140,2013-12-04 05:15:00
11:35 PM,41.0,39.2,93,29.49,10.0,SSE,5.8,-,N/A,,Clear,150,2013-12-04 05:35:00
11:55 PM,41.0,37.4,87,29.48,10.0,SE,4.6,-,N/A,,Clear,130,2013-12-04 05:55:00